Theta_e
346 351 347 348 351 349 345 346 342 341 346 348 347 347 347 344 343 347 352 364 364 364 366 364 363 361 360 361 360 358 358 358 356 354 352 354 359 360 357 355 355 355 356
350 352 351 351 351 351 347 338 336 337 341 351 349 347 347 348 346 344 349 357 364 362 365 366 366 364 363 361 361 360 360 359 362 361 359 357 355 357 359 356 355 357 358
351 349 349 349 349 353 346 335 336 337 341 350 349 348 347 347 348 344 342 350 358 364 365 365 366 366 366 365 363 362 363 361 359 359 360 360 357 357 357 357 357 358 358
355 355 350 347 349 351 353 345 337 338 346 347 347 348 348 347 347 345 344 342 349 358 362 365 363 363 364 365 365 364 362 361 359 358 358 359 360 358 358 359 359 358 358
356 350 349 350 351 352 349 350 348 348 343 347 342 336 334 341 348 350 345 344 343 347 353 361 363 363 364 365 366 365 364 362 360 359 359 359 359 359 359 359 359 359 359
356 356 354 353 353 350 347 345 339 340 343 346 350 345 338 346 347 345 346 346 344 345 348 353 358 359 363 362 363 363 363 364 362 361 360 359 359 358 357 358 358 358 358
352 354 353 350 351 348 345 346 337 336 335 343 340 339 340 342 343 346 348 347 346 344 346 347 352 356 356 362 361 362 364 365 364 362 361 360 359 359 358 357 356 356 357
354 355 352 350 350 349 345 344 339 333 336 344 337 337 331 335 339 343 346 348 347 347 344 345 348 352 353 355 357 361 362 363 364 363 362 360 359 358 357 357 356 356 356
356 357 355 354 351 350 347 345 340 336 334 340 341 335 329 329 336 339 339 341 346 346 346 345 347 349 353 353 356 358 361 358 361 363 362 361 358 357 357 357 356 355 355
355 358 355 354 352 350 346 345 347 344 341 340 340 341 338 337 330 329 334 337 342 342 346 346 346 347 347 351 355 359 358 356 358 362 363 362 359 358 357 357 357 356 355
337 343 343 343 342 347 348 346 345 345 343 339 340 336 336 335 335 332 327 330 338 340 344 350 352 349 346 346 346 350 356 356 356 357 359 361 361 360 359 359 359 359 358
333 336 341 341 341 341 341 342 342 341 341 342 342 341 339 335 332 331 329 330 332 336 339 342 345 346 346 345 353 354 354 355 354 353 354 357 359 361 361 362 362 361 361
330 332 336 338 339 338 337 338 339 338 337 336 336 337 339 339 339 336 334 333 333 337 339 343 341 335 339 338 345 353 358 353 351 350 350 351 353 356 358 359 361 362 362
334 334 335 335 337 338 339 338 336 336 336 335 335 335 335 337 339 337 335 333 330 333 335 336 335 332 334 336 346 346 345 349 349 347 346 346 347 349 351 353 354 356 356
333 330 335 335 336 337 337 336 335 334 334 334 333 332 332 334 333 334 335 335 331 325 328 334 331 332 333 338 339 339 342 340 345 346 343 341 342 344 345 347 348 347 347
334 336 335 336 336 336 336 335 333 333 332 333 332 327 327 330 330 330 328 330 333 331 326 332 336 334 335 340 340 338 344 339 343 346 342 340 340 341 341 342 342 343 343
333 333 334 335 336 336 335 333 332 332 331 326 325 326 326 328 327 327 326 327 329 331 328 332 335 330 327 331 334 338 338 340 345 344 340 338 337 337 338 338 339 340 340
329 331 333 335 334 333 332 331 330 329 324 321 321 321 320 323 321 324 323 322 323 324 328 328 333 331 326 329 330 332 337 342 346 346 339 336 335 335 334 335 335 335 334
330 332 334 332 332 332 331 329 327 322 321 320 319 318 319 320 319 321 322 321 321 322 324 329 331 335 339 337 331 331 334 339 344 344 340 337 335 333 335 331 330 329 327
333 332 332 332 330 330 330 327 322 321 319 319 319 319 320 320 319 319 320 320 320 321 323 327 330 332 334 337 331 329 332 334 336 344 341 338 336 336 337 334 332 330 325
333 332 330 328 329 328 326 321 321 318 318 318 319 320 321 322 325 324 322 319 320 320 325 326 327 329 331 334 335 339 337 336 336 339 335 334 336 339 342 335 337 334 328
332 329 329 329 325 328 323 324 323 319 318 318 319 321 320 322 322 323 324 325 323 320 320 326 326 326 329 333 338 337 334 331 332 342 336 335 342 340 339 332 337 333 327
329 326 327 326 325 324 322 321 322 319 317 319 321 319 320 321 320 319 322 322 323 324 324 324 325 328 330 334 337 332 334 332 332 337 339 336 335 333 338 340 334 329 326
328 326 326 326 323 324 321 317 319 317 318 321 321 321 320 321 319 319 320 320 322 326 326 327 327 331 335 337 336 335 333 334 334 337 337 332 336 335 338 342 337 333 325
328 326 326 324 321 320 318 315 315 315 318 320 321 322 321 318 318 319 318 318 324 329 330 325 327 329 329 329 330 334 331 328 327 331 335 335 334 334 334 337 337 330 325
327 328 325 324 319 317 315 314 313 314 317 319 320 322 320 316 312 316 321 327 326 327 331 332 328 328 329 328 327 335 332 329 329 327 332 332 329 332 329 336 335 334 339
Wind_Speed
3 2 3 4 5 5 4 2 5 3 1 6 5 5 6 7 3 3 4 19 16 18 18 18 18 18 18 16 16 16 16 16 15 15 15 14 13 15 14 13 13 13 12
3 2 0 3 4 4 3 5 4 4 2 5 5 5 6 7 7 5 4 6 18 19 17 18 18 19 19 18 17 17 18 18 16 16 16 15 14 13 14 15 15 14 13
5 5 3 3 4 4 6 4 4 2 5 5 5 5 5 7 9 7 4 5 8 19 18 18 19 20 20 20 20 19 18 17 17 16 16 16 16 15 15 16 15 15 14
7 6 4 4 5 4 3 5 3 4 4 5 3 5 6 5 6 9 7 6 5 6 12 18 19 20 20 20 20 20 19 19 18 17 17 17 17 17 16 16 16 16 15
6 4 4 4 5 4 3 3 2 2 2 2 2 4 9 13 9 6 7 8 10 7 6 14 20 20 21 21 21 21 21 20 20 19 18 18 18 18 18 18 17 17 17
4 5 4 4 3 4 3 2 1 2 1 3 1 3 8 17 6 6 9 10 8 11 7 10 9 11 21 22 21 22 22 22 21 21 20 19 19 19 18 18 18 17 18
7 4 4 4 4 3 4 5 1 1 3 1 2 3 6 8 7 6 9 10 11 9 10 9 7 7 9 22 22 22 23 23 22 22 21 20 20 19 19 18 18 18 18
9 6 5 5 6 3 4 5 3 2 3 4 3 2 4 5 4 7 8 10 14 7 11 12 11 11 10 9 15 22 24 24 23 23 22 21 21 20 19 19 18 18 18
7 7 7 6 5 4 4 5 4 5 3 3 6 4 2 4 4 3 6 4 6 3 7 10 9 12 12 11 13 17 25 26 24 24 23 22 21 20 20 19 19 19 19
5 7 7 6 5 2 3 3 3 4 4 5 1 5 6 4 5 10 6 2 6 4 14 4 9 12 14 10 14 18 21 24 24 24 23 23 22 21 21 21 20 19 19
3 6 6 6 4 3 4 4 5 4 2 3 3 2 4 4 6 8 11 8 4 6 4 5 6 15 12 10 9 13 20 22 24 24 25 24 22 20 20 21 20 20 19
3 4 3 2 1 2 3 3 4 5 5 4 4 4 4 4 3 5 7 11 13 13 9 7 6 6 4 4 9 16 18 20 21 23 23 23 22 21 22 22 20 20 20
1 3 3 4 3 3 4 4 4 5 5 4 5 5 4 5 5 6 7 11 10 11 9 9 6 5 1 4 9 19 20 22 22 22 21 22 22 21 21 21 19 20 20
1 3 3 4 4 5 5 5 3 4 5 5 7 6 5 6 5 5 8 9 12 11 7 14 2 4 5 5 3 18 19 15 19 22 21 21 19 19 18 19 18 19 19
2 3 4 4 5 5 5 5 3 5 4 4 5 6 6 8 5 4 4 6 10 14 13 13 6 7 3 5 6 1 19 19 25 25 21 19 19 19 18 18 17 16 15
3 4 4 5 5 6 5 4 4 5 6 5 4 8 10 9 10 8 7 9 9 11 16 13 11 8 4 6 8 14 18 19 20 27 18 16 16 17 17 17 16 16 16
3 4 5 5 6 5 5 5 6 7 7 6 6 9 12 12 11 11 10 11 10 10 14 15 8 5 7 9 11 14 13 6 8 16 9 10 11 13 16 17 17 18 17
5 6 6 5 5 5 5 6 7 6 5 8 12 14 16 12 17 16 13 16 13 13 13 21 13 8 11 12 11 9 7 9 7 4 13 11 15 17 23 18 18 18 17
7 7 3 4 6 6 6 7 5 6 6 11 15 18 19 20 20 15 16 15 13 13 15 16 15 9 12 8 6 5 7 10 9 14 15 11 16 27 28 22 16 17 16
4 3 4 5 5 6 7 5 6 9 15 17 18 20 22 24 26 21 18 16 14 14 15 16 13 10 10 8 5 4 4 4 6 8 10 8 15 26 25 21 17 19 16
3 2 2 5 6 4 3 5 9 13 17 20 21 22 21 25 32 26 14 14 14 14 12 12 12 10 11 9 8 7 8 6 7 7 8 7 10 12 15 15 14 20 19
2 1 4 5 6 3 6 9 13 15 17 19 20 21 20 26 22 25 28 30 23 15 15 10 10 11 13 10 9 8 5 4 4 8 8 10 9 13 11 7 10 17 18
2 2 5 5 5 4 6 10 17 13 16 18 20 20 18 13 18 15 19 24 27 29 29 18 15 12 11 10 9 7 8 6 5 4 8 8 5 8 7 7 13 15 15
3 4 5 5 3 3 7 12 16 13 14 20 20 19 19 18 14 14 12 13 16 18 18 17 19 16 8 7 8 7 8 5 3 4 4 4 4 5 4 6 11 11 10
4 5 4 4 1 5 9 11 13 12 16 19 19 19 17 17 23 17 12 13 15 13 13 22 23 20 16 11 8 4 4 3 1 2 3 4 4 4 4 6 7 12 12
5 4 5 3 4 4 7 14 11 8 15 13 19 19 25 26 29 13 10 8 10 11 8 8 13 13 11 8 11 6 5 4 3 1 4 4 1 1 4 3 4 4 4
Wind_Direction
226 254 240 216 186 173 200 214 218 190 311 255 257 274 302 301 289 216 192 211 198 205 196 195 203 205 210 213 216 217 217 214 213 216 216 217 217 212 206 213 215 217 217
203 198 240 273 287 192 145 207 214 220 288 283 259 244 255 287 287 254 206 217 208 210 203 200 208 212 212 214 215 219 222 223 220 217 218 218 218 215 213 218 219 222 226
205 217 226 249 259 275 173 220 233 179 225 251 261 240 236 249 277 271 257 197 222 211 205 206 207 216 216 216 213 215 221 224 224 220 224 221 220 218 218 220 223 224 228
205 197 217 266 276 292 241 207 198 234 239 232 250 320 289 243 251 272 274 263 204 220 220 215 216 216 218 219 223 220 217 219 222 223 222 224 224 223 222 223 225 227 227
214 221 221 244 258 270 300 10 300 336 317 298 93 6 315 308 270 271 271 258 248 223 204 217 217 219 218 219 222 222 220 219 218 220 223 221 226 228 226 226 227 228 230
274 201 231 246 269 297 342 297 166 310 200 288 299 183 225 261 235 213 247 262 251 238 212 212 210 221 221 223 221 225 223 220 221 218 222 222 223 227 229 228 229 229 230
279 272 243 257 275 279 263 281 278 296 298 233 347 231 219 248 257 245 240 244 256 233 227 208 202 204 216 222 221 223 227 224 224 225 220 220 223 224 226 227 229 230 231
248 244 235 246 253 239 247 265 207 250 240 185 210 185 309 307 273 245 235 236 240 246 240 226 211 206 205 205 218 225 228 228 224 227 228 222 219 223 224 225 226 227 230
225 233 235 237 237 222 230 247 232 200 253 267 195 178 289 236 296 268 299 296 290 307 269 249 211 216 208 206 209 219 223 225 226 227 228 229 224 219 223 225 227 228 230
264 259 242 250 255 261 280 262 231 224 196 262 302 221 238 226 252 292 248 234 275 285 282 260 260 249 226 208 206 208 210 217 221 224 226 228 229 223 221 223 226 228 229
31 72 77 56 33 352 307 303 315 301 250 254 235 241 240 249 248 249 283 286 209 236 254 236 217 273 240 220 227 222 210 210 214 218 220 223 229 228 225 224 225 228 229
8 42 53 58 307 318 339 322 314 312 302 292 278 262 247 262 228 229 257 272 278 278 257 204 206 245 280 297 258 225 220 216 214 215 217 218 219 223 226 226 225 226 229
346 337 355 17 4 331 315 301 302 303 295 290 284 287 282 271 254 255 249 268 278 286 288 278 229 178 37 352 334 300 244 221 215 214 217 216 217 219 224 227 226 227 230
327 327 6 348 333 326 315 313 310 293 287 298 302 301 293 286 275 278 273 285 281 273 281 269 286 186 179 171 55 337 335 309 234 213 213 217 216 217 219 223 224 225 229
296 294 313 310 303 301 302 307 296 297 304 291 291 282 284 288 278 267 271 271 269 285 274 268 265 256 211 215 197 285 263 295 322 256 212 214 217 213 215 220 221 223 223
279 295 297 294 295 294 290 295 285 279 283 271 265 289 286 279 279 277 278 273 258 263 271 267 259 250 210 222 204 216 252 284 288 294 230 216 224 214 210 218 221 221 220
319 303 290 290 286 290 298 296 281 271 265 281 280 278 277 273 269 265 259 260 261 262 263 270 257 232 212 222 228 220 205 229 259 324 325 302 291 241 223 223 218 219 217
285 279 283 294 305 306 299 289 273 290 297 294 294 292 284 280 273 265 260 257 253 259 262 265 254 240 224 220 230 229 215 199 217 276 290 308 313 307 269 227 218 220 215
267 276 312 343 314 303 298 287 306 303 288 298 294 286 278 276 270 265 258 255 250 257 253 253 255 241 249 231 224 208 202 196 201 182 229 252 297 301 287 259 234 224 214
299 338 342 320 314 308 295 326 334 328 314 298 290 280 278 277 272 270 261 258 256 247 247 248 246 239 239 231 216 214 209 208 195 198 220 204 250 272 267 243 235 232 224
299 359 350 307 296 295 323 15 339 318 306 302 292 285 284 283 275 264 261 250 243 248 246 236 242 234 232 234 221 208 219 228 218 190 202 198 220 237 250 239 235 235 227
244 352 306 286 300 304 5 352 329 318 306 302 302 301 296 292 275 268 262 251 242 244 250 249 232 232 234 220 223 209 197 174 220 196 192 232 216 239 246 236 231 227 220
178 270 281 291 295 315 350 330 325 314 310 305 313 309 303 290 282 268 256 250 247 243 240 244 247 233 230 217 210 209 215 187 196 164 183 222 168 228 236 241 252 246 225
224 262 283 292 275 335 326 311 325 319 318 317 322 316 313 304 272 258 258 257 253 243 231 228 230 235 221 216 200 207 191 203 164 150 161 199 192 230 233 243 224 239 221
245 251 259 274 68 323 302 310 346 332 329 324 335 328 327 331 317 256 249 254 256 248 230 215 219 223 223 226 217 169 204 124 198 218 214 179 215 243 237 251 237 227 247
240 254 289 304 146 293 301 352 347 331 333 333 342 340 348 348 342 286 246 266 272 253 231 200 215 223 205 200 206 178 165 152 152 128 252 177 227 168 301 246 246 201 249